Simultaneous Nadir Overpasses (SNOs) Predictions

Prediction of SNOs between TERRA and METOP-C Satellite Orbit:

Table of predicted SNOs for the next 14.0 days since TLE Epoch: 12/21/2024
Index Date (TERRA) Time (TERRA) Lat,Lon (TERRA) SZA (TERRA ) Date (METOP-C) Time (METOP-C) Lat,Lon (METOP-C) SZA (METOP-C ) Distance(km) Time Diff (sec)
1 12/21/2024 07:54:49 52.51, 35.59 78.93 12/21/2024 07:54:37 52.51, 35.59 78.94 0.39 12
2 12/21/2024 08:41:55 -60.50,-152.37 94.41 12/21/2024 08:42:59 -60.50,-152.34 94.45 2.31 64
3 12/23/2024 21:36:01 -48.38, 8.79 104.38 12/23/2024 21:35:26 -48.38, 8.80 104.33 1.33 35
4 12/23/2024 22:22:43 57.55,-179.23 83.17 12/23/2024 22:23:24 57.56,-179.20 83.14 1.95 41
5 12/26/2024 11:16:54 45.03, -17.49 72.97 12/26/2024 11:15:57 45.03, -17.43 73.03 4.98 57
6 12/26/2024 12:04:00 -53.16, 153.46 100.46 12/26/2024 12:04:19 -53.16, 153.44 100.48 1.21 19
7 12/29/2024 01:45:03 49.19, 126.71 76.30 12/29/2024 01:45:01 49.19, 126.70 76.30 0.98 2
8 12/29/2024 02:31:53 -58.21, -61.27 96.35 12/29/2024 02:33:06 -58.21, -61.26 96.41 0.83 73
9 12/31/2024 15:26:14 -45.07, 100.10 107.06 12/31/2024 15:25:50 -45.07, 100.12 107.02 1.17 24
10 12/31/2024 16:12:35 55.48, -87.80 81.31 12/31/2024 16:13:27 55.49, -87.78 81.26 1.81 52
11 01/03/2025 05:06:08 45.04, 75.08 72.83 01/03/2025 05:05:23 45.01, 75.21 72.82 11.11 45



Historial Predications of SNOs between TERRA and METOP-C
